Back to catalog

PROITERES

AliveScienceSSO
NORAD 38756·PAYLOAD·🇯🇵 Japan

Launched Sep 9, 2012 from Satish Dhawan Space Centre

Loading…

Next Passes (next 24 hours)

TLE

FreshSource: Space-Track

Epoch: Sep 14, 2026, 13:16 UTC

1 38756U 12047B   26257.55336894  .00000523  00000-0  71983-4 0  9990
2 38756  98.2331 181.9411 0011711 120.5931 239.6439 14.82639251755558

Track PROITERES in real time with AllMySat

Download on the App Store